Regional Weather Roundup
Issued by NWS Grand Forks, ND

Home | Current Version | Previous Version | Text Only | Print | Product List | Glossary Off
Versions: 1 2 3 4 5 6 7 8 9 10 11 12 13 14 15 16 17 18 19 20 21 22 23 24 25 26 27 28 29 30 31 32 33 34 35 36 37 38 39 40 41 42 43 44 45 46 47 48 49 50

000
ASUS43 KFGF 242131
RWRFGF
PRAIRIE TO PINES  WEATHER ROUNDUP
NATIONAL WEATHER SERVICE EASTERN NORTH DAKOTA/GRAND FORKS ND
400 PM CDT TUE APR 24 2018

 **SATELLITE DATA USED TO AUGMENT SKY COVER AT AUTOMATED STATIONS**
 *****  WEATHER ACROSS EASTERN NORTH DAKOTA  *****

CITY           SKY/WX    TMP DP  RH WIND       PRES   REMARKS
GRAND FORKS    FAIR      52  30  43 N21G32    30.35F
GRAND FRKS AFB FAIR      53  27  36 N20       30.36F
GRAND FRKS NWS   N/A     54  28  37 N18       30.33F
DEVILS LAKE    FAIR      53  27  36 NW16      30.37F
FARGO          FAIR      54  30  40 N24G32    30.34F
WAHPETON ARPT  FAIR      54  30  40 N21       30.32F
$$

 ***** WEATHER ACROSS CENTRAL AND WESTERN NORTH DAKOTA  *****

CITY           SKY/WX    TMP DP  RH WIND       PRES   REMARKS
BISMARCK       FAIR      57  24  28 N8G20     30.40F
MINOT          FAIR      60  18  19 W9        30.36F
JAMESTOWN      FAIR      54  28  36 N15G28    30.36F
MINOT AFB      FAIR      58  21  23 NW6       30.36F
GARRISON         N/A     56  22  26 N10       30.39F
WILLISTON      FAIR      59  25  27 SW13G20   30.38F
DICKINSON      FAIR      55  17  22 NW8       30.39F
HETTINGER      FAIR      50  25  37 NW12G18   30.44F
$$

 *****  OTHER AIRPORT OBSERVATIONS IN OUR AREA  *****

CITY           SKY/WX    TMP DP  RH WIND       PRES   REMARKS
WALHALLA       FAIR      52  25  35 N13       30.37F
GRAFTON AIRPOR FAIR      54  23  30 NW16G25   30.38F
VALLEY CITY AR FAIR      54  28  37 N16       30.36F
CANDO          FAIR      55  25  30 N12G18    30.39F
CAVALIER APRT    N/A     52  25  35 N13G22    30.37F
GWINNER          N/A     54  34  47 N16G25    30.34F
SHEYENNE NWR     N/A     54  29  38 N16       29.95S
ROLLA          FAIR      54  27  35 N12       30.36F
 ***** THE ABOVE OBSERVATIONS ARE NON NWS ARE NOT QUALITY
       CONTROLLED AND MAY MIS-REPORT RAIN FOR SNOW...
$$

  *****  WEATHER ACROSS NORTHERN MINNESOTA  *****

CITY           SKY/WX    TMP DP  RH WIND       PRES   REMARKS
FLAG ISLAND    FAIR      39  23  52 NW9       30.33F
WARROAD        FAIR      39  27  60 E9        30.34F
ROSEAU         FAIR      48  30  49 N16       30.33F
HALLOCK        FAIR      54  19  26 N20       30.35F
THF RVR FALLS  FAIR      50  24  36 N20G26    30.33F
BAUDETTE       FAIR      41  24  51 N12       30.33F
WASKISH        PTSUNNY   43  25  49 NW13G18   30.31S
CROOKSTON      FAIR      52  28  40 N25       30.34F
STEPHEN NDAWN    N/A     52  21  30 N17         N/A
GREENBUSH NDAW   N/A     48  30  49 N16         N/A
$$
  *****  WEATHER ACROSS CENTRAL AND WEST MINNESOTA  *****

CITY           SKY/WX    TMP DP  RH WIND       PRES   REMARKS
FOSSTON        FAIR      52  28  40 N23G29    30.31S
BEMIDJI        FAIR      51  27  39 NW13G22   30.27S
PARK RAPIDS    FAIR      54  24  31 N16G28    30.24F
ELBOW LAKE     FAIR      52  32  46 N17G25    30.28F
WADENA         FAIR      54  30  40 NW16G23   30.24F
DETROIT LAKES  FAIR      52  32  46 N22G29    30.30S
MOORHEAD       FAIR      54  34  47 N25G31    30.34S
FERGUS FALLS   FAIR      54  32  43 N20G29    30.27F
MORRIS MN      FAIR      55  36  47 N17       30.27S
STAPLES        FAIR      55  23  28 NW13G22   30.23F
$$
  *****  WEATHER ELSEWHERE ACROSS MINNESOTA  *****

CITY           SKY/WX    TMP DP  RH WIND       PRES   REMARKS
DULUTH         FAIR      55  29  36 NW13G21   30.16F
INTRNTL FALLS  FAIR      43  25  49 N14G23    30.29S
ELY            FAIR      46  21  36 N12G24    30.20R
CLOQUET        FAIR      55  23  28 NW10G17   30.17F
WHEATON        FAIR      54  32  43 N21       30.32F
BRAINERD       FAIR      57  23  26 N15       30.22F
HIBBING        FAIR      50  27  40 NW21G26   30.20S
ALEXANDRIA     FAIR      57  31  37 NW13      30.26F
SAINT CLOUD    FAIR      55  35  47 N14       30.21F
MINNEAPOLIS    PTSUNNY   63  34  33 N22G28    30.16S
$$

  *****  WEATHER ACROSS SOUTH DAKOTA  *****

CITY           SKY/WX    TMP DP  RH WIND       PRES   REMARKS
SIOUX FALLS    CLOUDY    49  41  74 NE16      30.24S
BROOKINGS      CLOUDY    42  37  82 NE17      30.28S
WATERTOWN      CLOUDY    46  37  71 N22G31    30.30S
HURON          CLOUDY    45  37  73 N21G31    30.33S
SISSETON         N/A     53  37  54 N20G29    30.31F
ABERDEEN       FAIR      54  35  48 N18       30.36F
MITCHELL       CLOUDY    45  40  82 N17G28    30.32R
PIERRE         CLOUDY    42  36  79 N12       30.40F
MOBRIDGE       FAIR      57  30  35 N13G23    30.36F
RAPID CITY     CLOUDY    46  27  47 N18       30.44F
$$

  *****  SOME WEATHER IN NEARBY STATES *****

CITY           SKY/WX    TMP DP  RH WIND       PRES   REMARKS
GLASGOW MT     FAIR      63  24  22 S10       30.36F
GREAT FALLS MT FAIR      62  21  20 S18G24    30.33F
CHEYENNE WY    CLOUDY    37  25  61 N20G26    30.38S
SCOTTSBLUFF NE CLOUDY    42  33  70 N15       30.42F
OMAHA NE       CLOUDY    68  41  37 NW22      30.10R
DES MOINES IA  PTSUNNY   75  36  24 NW12      30.05F
DAVENPORT IA   FAIR      75  27  17 N14G20    30.00F
CHICAGO IL     FAIR      63  47  55 NE10      29.97F
EAU CLAIRE WI  PTSUNNY   67  33  28 N14G25    30.08S
LA CROSSE WI   CLOUDY    74  37  26 NW14      30.01F
$$

  *****  SOME NATIONAL WEATHER *****

CITY           SKY/WX    TMP DP  RH WIND       PRES   REMARKS
LA GUARDIA NY  CLOUDY    62  40  44 SE12      30.25F
RALEIGH NC     CLOUDY    64  61  90 SE14      29.85F
ATLANTA GA     PTSUNNY   68  56  65 W14G21    29.85F
NEW ORLEANS LA FAIR      78  56  46 NW9       29.95F
OKLAHOMA CITY  FAIR      77  46  33 CALM      30.07F
ALBUQUERQUE NM PTSUNNY   80  18  10 S13G23    30.07F
SALT LAKE CITY FAIR      64  32  30 W12       30.26F
LOS ANGELES CA PTSUNNY   62  52  69 W13       30.03F
BOISE ID       FAIR      64  35  34 VRB5      30.29F
SEATTLE WA     PTSUNNY   76  37  24 N9        30.12F
$$

*** WEATHER ACROSS MANITOBA...SASKATCHEWAN AND ONTARIO ***
                ***ONTARIO***

CITY           SKY/WX    TMP DP  RH WIND       PRES   REMARKS
GERALDTON      CLOUDY    37  27  65 N12G18    30.16R
THUNDER BAY    PTSUNNY   52  28  40 N17G26    30.15R
SIOUX LOOKOUT  MOSUNNY   37  21  52 NW14G20   30.28F
TORONTO        CLOUDY    59  39  47 S10G23    30.08F
BIG TROUT LK   SUNNY     36  14  41 W12       30.27F
PICKLE LAKE    MOSUNNY   36  19  51 N6        30.24F
DRYDEN         SUNNY     41  19  42 NE9G18    30.28F
KENORA         SUNNY     45  19  36 NW8G17    30.31F
$$
                *** MANITOBA***

CITY           SKY/WX    TMP DP  RH WIND       PRES   REMARKS
BRANDON        MOSUNNY   57  30  35 NW9       30.34F
DAUPHIN        SUNNY     61  25  25 W15G22    30.29F
ISLAND LAKE    MOSUNNY   41  21  45 VRB2      30.28F
PILOT MOUND      N/A     54  23  30 N8          N/A
THE PAS        MOSUNNY   54  30  40 S18G24    30.13F
THOMPSON       MOSUNNY   45  25  45 SW13G21   30.13F
WINNIPEG       SUNNY     50  23  34 NE10      30.37F
LYNN LAKE      MOSUNNY   50  30  46 S18G25    29.92F
CHURCHILL      PTSUNNY   37  27  65 SW15G22   30.07F
GILLAM         PTSUNNY   39  27  60 SW13G21   30.17F
$$
                ***SASKATCHEWAN***

CITY           SKY/WX    TMP DP  RH WIND       PRES   REMARKS
ESTEVAN        MOSUNNY   59  23  25 SW9G21    30.35F
KINDERSLEY     PTSUNNY   68  19  15 SW21G30   30.16F
LLOYDMINSTER   PTSUNNY   70  27  19 W17G25    30.06F
PRINCE ALBERT  MOSUNNY   66  32  28 W16G24    30.12F
REGINA         MOSUNNY   64  21  19 W15G25    30.28F
YORKTON        SUNNY     61  28  29 W14G24    30.26F
N. BATTLEFORD  SUNNY     68  28  22 SW20G26   30.12F
LA RONGE       PTSUNNY   64  28  25 SW15      29.96F
SASKATOON      PTSUNNY   68  23  18 SW22G29   30.17F
SWIFT CURRENT  SUNNY     64  25  22 SW21G33   30.24F
$$
NOTE: THESE ARE AUTOMATED STATIONS WITH LIMITED QUALITY CONTROL
      "FAIR" INDICATES FEW OR NO CLOUDS BELOW 12,000 FEET WITH NO
      SIGNIFICANT WEATHER AND/OR OBSTRUCTIONS TO VISIBILITY.
      SKY/WX - SKY CONDITION AND SIGNIFICANT WEATHER.
      TMP - AIR TEMPERATURE.    DP   - DEWPOINT TEMPERATURE.
      RH  - RELATIVE HUMIDITY.  PRES - PRESSURE.
      HX  - HEAT INDEX.         WCI  - WIND CHILL INDEX.
$




USA.gov is the U.S. government's official web portal to all federal, state and local government web resources and services.